FW1484 Weather Reports


Display with metric or nautical units.
time (UTC)temp
F
wind
direction
speed
MPH
gust
MPH
rain 1hr
in
rain 24hr
in
rain mn
in
humidity
%
barometer
mb
20260505170114 56 3 1.0 8.0 0.00 0.00 0.00 64 1008.2
20260505164511 57 41 1.0 7.0 0.00 0.00 0.00 64 1008.1
20260505163013 57 60 1.0 7.0 0.00 0.00 0.00 61 1008.1
20260505161510 57 60 2.0 9.0 0.00 0.00 0.00 62 1008.1
20260505153006 57 210 2.0 8.0 0.00 0.00 0.00 62 1008.4
20260505151504 57 103 1.0 5.0 0.00 0.00 0.00 62 1008.5
20260505130106 57 88 3.0 8.0 0.00 0.00 0.00 62 1008.7
20260505124558 57 101 3.0 14.0 0.00 0.00 0.00 61 1008.8
20260505123059 58 345 3.0 12.0 0.00 0.00 0.00 59 1008.7
20260505121625 57 342 3.0 13.0 0.00 0.00 0.00 60 1008.8
20260505120056 59 275 2.0 8.0 0.00 0.00 0.00 58 1008.6
20260505114554 58 25 1.0 8.0 0.00 0.00 0.00 59 1008.8
20260505113053 59 114 2.0 10.0 0.00 0.00 0.00 58 1008.8
20260505111551 57 295 2.0 10.0 0.00 0.00 0.00 59 1008.7
20260505101553 58 50 3.0 10.0 0.00 0.00 0.00 61 1009.1
20260505100042 58 79 1.0 6.0 0.00 0.00 0.00 62 1009.1
20260505094539 56 51 5.0 10.0 0.00 0.00 0.00 64 1009.1
20260505093042 57 96 1.0 8.0 0.00 0.00 0.00 64 1009.1
20260505091540 56 4 1.0 5.0 0.00 0.00 0.00 65 1009.2
20260505090048 54 64 3.0 10.0 0.00 0.00 0.00 68 1009.2
20260505084528 54 130 3.0 6.0 0.00 0.00 0.00 68 1009.3
20260505083028 53 61 2.0 7.0 0.00 0.00 0.00 69 1009.3
20260505081529 0 0.0 0.0 0.00 0.00 0.00 1009.6
20260505080022 0 0.0 0.0 0.00 0.00 0.00 1009.6
20260505074514 51 131 1.0 7.0 0.00 0.01 0.00 79 1009.6
20260505073010 50 32 2.0 7.0 0.00 0.01 0.00 83 1009.6
20260505071506 49 99 0.0 0.0 0.00 0.01 0.00 89 1009.7
20260505070006 48 51 0.0 0.0 0.00 0.02 0.00 90 1009.7
20260505064506 47 253 0.0 0.0 0.00 0.02 0.00 92 1009.8
20260505063002 47 340 0.0 0.0 0.00 0.02 0.00 93 1009.7
20260505061502 47 128 0.0 0.0 0.00 0.02 0.00 93 1009.8
20260505060005 47 127 0.0 0.0 0.00 0.02 0.00 93 1009.8
20260505054601 47 127 0.0 0.0 0.00 0.02 0.00 93 1009.8
20260505053108 47 127 0.0 0.0 0.00 0.02 0.00 93 1009.7
20260505051559 47 127 0.0 0.0 0.00 0.02 0.00 93 1009.7
20260505041557 47 136 0.0 0.0 0.00 0.02 0.00 93 1009.4
20260505040057 47 137 0.0 0.0 0.00 0.02 0.00 93 1009.3
20260505034555 47 137 0.0 0.0 0.00 0.02 0.00 93 1009.3
20260505033112 47 137 0.0 0.0 0.00 0.02 0.00 93 1009.3
20260505031555 47 131 0.0 0.0 0.00 0.02 0.00 93 1009.6
20260505030054 47 131 0.0 0.0 0.00 0.02 0.00 93 1009.6
20260505024557 47 136 0.0 0.0 0.00 0.02 0.00 93 1009.5
20260505023101 46 193 0.0 0.0 0.00 0.02 0.00 93 1009.6
20260505021550 46 227 0.0 0.0 0.00 0.02 0.00 93 1009.7
20260505020051 46 238 0.0 0.0 0.00 0.02 0.00 92 1009.7
20260505014546 46 165 0.0 0.0 0.00 0.02 0.00 92 1009.8
20260505013045 46 165 0.0 0.0 0.00 0.02 0.00 92 1009.9
20260505011544 46 165 0.0 0.0 0.00 0.02 0.00 92 1009.9
20260505010044 47 148 0.0 0.0 0.00 0.02 0.00 92 1009.9
20260505004547 47 148 0.0 0.0 0.00 0.02 0.00 91 1010.0
20260505003039 47 148 0.0 0.0 0.00 0.02 0.00 91 1010.1
20260505001538 48 148 0.0 0.0 0.00 0.02 0.00 91 1010.3
20260505000037 48 153 0.0 0.0 0.00 0.02 0.00 91 1010.3
20260504234558 48 156 0.0 0.0 0.00 0.02 0.00 91 1010.6
20260504233036 48 157 0.0 0.0 0.00 0.02 0.00 90 1010.3
20260504231542 48 157 0.0 0.0 0.00 0.02 0.00 90 1010.1
20260504230029 49 120 0.0 0.0 0.00 0.02 0.00 90 1010.1
20260504224528 49 119 0.0 0.0 0.00 0.02 0.02 90 1010.2
20260504223026 50 120 0.0 0.0 0.00 0.02 0.02 90 1010.3
20260504221525 50 256 0.0 0.0 0.00 0.02 0.02 90 1010.4
20260504220025 50 229 0.0 0.0 0.00 0.02 0.02 90 1010.2
20260504214533 50 133 0.0 0.0 0.00 0.02 0.02 90 1010.3
20260504213026 50 133 0.0 0.0 0.00 0.02 0.02 90 1010.5
20260504211522 50 136 0.0 0.0 0.00 0.02 0.02 89 1010.4
20260504210021 50 134 0.0 0.0 0.00 0.02 0.02 89 1010.3
20260504204544 51 240 0.0 0.0 0.00 0.02 0.02 88 1010.3
20260504203021 51 194 0.0 0.0 0.00 0.02 0.02 87 1010.3
20260504201517 52 152 0.0 0.0 0.00 0.02 0.02 87 1010.1
20260504200016 52 227 0.0 0.0 0.00 0.02 0.02 85 1009.8
20260504194514 53 227 0.0 0.0 0.00 0.09 0.02 84 1009.7
20260504193021 54 244 0.0 0.0 0.00 0.09 0.02 82 1009.3
20260504191514 55 241 0.0 0.0 0.00 0.09 0.02 80 1009.1
20260504190014 55 238 0.0 0.0 0.00 0.09 0.02 80 1009.1
20260504184512 56 128 0.0 0.0 0.00 0.28 0.02 77 1009.1
20260504183011 56 267 0.0 0.0 0.00 0.28 0.02 78 1009.0
20260504181512 57 233 0.0 0.0 0.00 0.28 0.02 78 1008.9
20260504180011 57 223 0.0 0.0 0.00 0.28 0.02 77 1008.8
20260504174510 57 293 0.0 0.0 0.00 0.28 0.02 79 1008.7
20260504173010 58 117 0.0 0.0 0.00 0.28 0.02 75 1008.9
20260504171531 58 312 0.0 0.0 0.00 0.28 0.02 75 1008.9